Regional Weather Roundup
Issued by NWS

Home | Current Version | Previous Version | Graphics & Text | Print | Product List | Glossary On
Versions: 1 2 3 4 5 6 7 8 9 10 11 12 13 14 15 16 17 18 19 20 21 22 23 24 25 26 27 28 29 30 31 32 33 34 35 36 37 38 39 40 41 42 43 44 45 46 47 48 49 50
000
ASUS43 KFSD 301610
RWRSD

WEATHER ROUNDUP FOR SOUTH DAKOTA
NATIONAL WEATHER SERVICE SIOUX FALLS SD
1100 AM CDT THU JUL 30 2015

NOTE: "FAIR" INDICATES FEW OR NO CLOUDS BELOW 12,000 FEET WITH NO
SIGNIFICANT WEATHER AND/OR OBSTRUCTIONS TO VISIBILITY.


SDZ001>005-009-010-012>017-301700-
NORTHWEST AND NORTH CENTRAL SOUTH DAKOTA

CITY           SKY/WX    TMP DP  RH WIND       PRES   REMARKS
BUFFALO          N/A     82  39  21 NW12G20   30.16F
FAITH            N/A     82  44  26 W8        30.20F
MOBRIDGE       SUNNY     78  60  53 SW5       30.13F
$$

SDZ012>016-024>037-041>051-057-063-072>074-301700-
SOUTHWEST AND SOUTH CENTRAL SOUTH DAKOTA

CITY           SKY/WX    TMP DP  RH WIND       PRES   REMARKS
RAPID CTY ARPT SUNNY     80  51  36 CALM      30.26S
PIERRE         SUNNY     80  50  34 W5        30.16R
CUSTER         SUNNY     75  37  25 VRB5      30.39S
ELLSWORTH AFB  SUNNY     80  46  29 N8        30.26R
PHILIP         SUNNY     80  52  37 W6        30.19F
PINE RIDGE     SUNNY     75  53  46 CALM      30.27S
SPEARFISH      FAIR      77  43  29 NW7       30.31S
WINNER         FAIR      83  53  35 SW6       30.18S
$$

SDZ004>011-016>023-039-040-301700-
NORTHEAST SOUTH DAKOTA

CITY           SKY/WX    TMP DP  RH WIND       PRES   REMARKS
ABERDEEN       SUNNY     77  62  59 S5        30.12F
WATERTOWN      SUNNY     79  51  37 NW7       30.15R
BROOKINGS      SUNNY     75  57  53 N8        30.16S
SISSETON         N/A     79  54  41 NW16      30.09S
$$

SDZ017-020-022-023-036>040-048>070-301700-
SOUTHEAST SOUTH DAKOTA

CITY           SKY/WX    TMP DP  RH WIND       PRES   REMARKS
SIOUX FALLS    SUNNY     78  61  55 W7        30.15S
HURON          SUNNY     78  57  48 CALM      30.14R
CHAMBERLAIN    SUNNY     77  58  50 SW5       30.16S
MITCHELL       SUNNY     78  59  51 CALM      30.15S
YANKTON        SUNNY     79  61  53 W12       30.16S
$$

ABBREVIATIONS USED IN REMARKS
   TC - TEMPERATURE IN CELSIUS
  WCI - WIND CHILL INDEX
   HX - HEAT INDEX
  VSB - VISIBILITY



USA.gov is the U.S. government's official web portal to all federal, state and local government web resources and services.